Alamosa, CO

10:03 AM MDT on July 24, 2017 (GMT -0600)
San Luis Valley Regional / Bergman Field

Weather History for KALS - October, 2011

Change the Weather History Date:

Saturday, October 8, 2011

  Actual Average Record
Temperature  
Mean Temperature 40 °F 46 °F  
Max Temperature 48 °F 65 °F 78 °F (1945)
Min Temperature 32 °F 27 °F 11 °F (1992)
Degree Days  
Heating Degree Days 25 19  
Month to date heating degree days 133 139  
Since 1 July heating degree days 414 570  
Cooling Degree Days 0 0  
Month to date cooling degree days 0 0  
Year to date cooling degree days 182 51  
Moisture  
Dew Point 31 °F    
Average Humidity 71    
Maximum Humidity 96    
Minimum Humidity 45    
Precipitation  
Precipitation 0.13 in 0.02 in 1.20 in (1938)
Month to date precipitation 0.41 0.17  
Year to date precipitation 3.75 6.03  
Snow  
Snow 1.20 in 0.00 in 1.90 in (1970)
Month to date snowfall 1.5 0.2  
Since 1 July snowfall 1.5 0.2  
Since 1 September snowfall 1.5 0.2  
Snow Depth 0.00 in    
Sea Level Pressure  
Sea Level Pressure 29.97 in    
Wind  
Wind Speed 6 mph (South)    
Max Wind Speed 17 mph    
Max Gust Speed 22 mph    
Visibility 6 miles    
Events Snow    
T = Trace of Precipitation, MM = Missing Value Source: NWS Daily Summary

Daily Weather History Graph

Daily Weather History Graph

Search for Another Location

Airport or City:

Trip Planner

Search our weather history database for the weather conditions in past years. The results will help you decide how hot, cold, wet, or windy it might be!

Date:

Astronomy

Oct. 08, 2011 Rise Set
Actual Time 7:04 AM MDT 6:36 PM MDT
Civil Twilight 6:38 AM MDT 7:02 PM MDT
Nautical Twilight 6:08 AM MDT 7:32 PM MDT
Astronomical Twilight 5:38 AM MDT 8:03 PM MDT
Moon 4:45 PM MDT (10/8) 3:58 AM MDT (10/8)
Length of Visible Light 12h 23m
Length of Day
11h 31m
Waxing Gibbous, 90% of the Moon is Illuminated
Oct 8
Waxing Gibbous
Oct 11
Full
Oct 19
Last Quarter
Oct 26
New
Nov 2
First Quarter

Hourly Weather History & Observations

Time (MDT) Temp. Windchill Dew Point Humidity Pressure Visibility Wind Dir Wind Speed Gust Speed Precip Events Conditions
12:52 AM 33.1 °F - 32.0 °F 96% 29.82 in 3.0 mi Calm Calm - 0.03 in Snow Light Snow
12:54 AM 33.8 °F 30.8 °F 32.0 °F 93% 29.91 in 2.0 mi South 3.5 mph - N/A Snow Light Snow
1:14 AM 33.8 °F 30.8 °F 32.0 °F 93% 29.90 in 4.0 mi WSW 3.5 mph - 0.01 in Snow Light Snow
1:24 AM 33.8 °F 30.8 °F 32.0 °F 93% 29.90 in 1.8 mi SW 3.5 mph - 0.01 in Snow Light Snow
1:41 AM 32.0 °F 26.4 °F 32.0 °F 100% 29.92 in 1.5 mi SSW 5.8 mph - 0.04 in Snow Light Snow
1:52 AM 33.1 °F 24.9 °F 32.0 °F 96% 29.83 in 1.5 mi SSW 10.4 mph - 0.04 in Snow Light Snow
1:59 AM 33.8 °F 24.3 °F 30.2 °F 87% 29.91 in 1.2 mi SW 13.8 mph - 0.01 in Snow Light Snow
2:26 AM 33.8 °F 25.3 °F 32.0 °F 93% 29.90 in 1.0 mi West 11.5 mph - 0.04 in Snow Light Snow
2:33 AM 33.8 °F 27.0 °F 32.0 °F 93% 29.91 in 1.5 mi WSW 8.1 mph - 0.05 in Snow Light Snow
2:39 AM 33.8 °F 27.7 °F 32.0 °F 93% 29.90 in 2.0 mi WSW 6.9 mph - 0.05 in Snow Light Snow
2:49 AM 33.8 °F 28.6 °F 32.0 °F 93% 29.91 in 4.0 mi SW 5.8 mph - 0.05 in Snow Light Snow
2:52 AM 33.1 °F 26.9 °F 32.0 °F 96% 29.82 in 4.0 mi SW 6.9 mph - 0.05 in Snow Light Snow
3:02 AM 33.8 °F 28.6 °F 32.0 °F 93% 29.91 in 8.0 mi SW 5.8 mph - 0.00 in Snow Light Snow
3:52 AM 32.0 °F 25.6 °F 32.0 °F 100% 29.83 in 9.0 mi SSE 6.9 mph - 0.00 in   Overcast
4:29 AM 33.8 °F 25.3 °F 30.2 °F 87% 29.91 in 10.0 mi SSE 11.5 mph - N/A   Overcast
4:37 AM 33.8 °F 25.3 °F 30.2 °F 87% 29.92 in 10.0 mi SSE 11.5 mph - N/A   Overcast
4:45 AM 33.8 °F 25.3 °F 30.2 °F 87% 29.92 in 10.0 mi SSE 11.5 mph - N/A   Overcast
4:52 AM 33.1 °F 24.4 °F 30.9 °F 92% 29.86 in 10.0 mi SSE 11.5 mph - N/A   Overcast
5:52 AM 33.1 °F 25.5 °F 30.9 °F 92% 29.88 in 10.0 mi South 9.2 mph - N/A   Overcast
6:52 AM 33.1 °F 26.9 °F 30.0 °F 89% 29.91 in 10.0 mi WSW 6.9 mph - N/A   Overcast
7:03 AM 33.8 °F 26.4 °F 28.4 °F 81% 29.96 in 8.0 mi SW 9.2 mph - 0.00 in Snow Light Snow
7:38 AM 33.8 °F 27.0 °F 28.4 °F 81% 29.98 in 1.8 mi SW 8.1 mph - 0.00 in Snow Light Snow
7:52 AM 33.1 °F 27.7 °F 30.0 °F 89% 29.95 in 1.2 mi NNW 5.8 mph - 0.01 in Snow Light Snow
8:06 AM 32.0 °F 27.5 °F 30.2 °F 93% 30.00 in 0.8 mi NNW 4.6 mph - 0.00 in Snow Light Snow
8:31 AM 33.8 °F 30.8 °F 30.2 °F 87% 30.00 in 2.5 mi NNE 3.5 mph - 0.03 in Snow Light Snow
8:38 AM 33.8 °F 29.6 °F 30.2 °F 87% 30.01 in 5.0 mi NNE 4.6 mph - 0.03 in Snow Light Snow
8:52 AM 33.1 °F 28.7 °F 30.9 °F 92% 29.99 in 4.0 mi NNE 4.6 mph - 0.03 in Snow Light Snow
8:57 AM 33.8 °F 29.6 °F 30.2 °F 87% 30.02 in 2.5 mi NE 4.6 mph - 0.00 in Snow Light Snow
9:06 AM 33.8 °F 30.8 °F 30.2 °F 87% 30.03 in 1.2 mi NW 3.5 mph - 0.00 in Snow Light Snow
9:28 AM 33.8 °F - 32.0 °F 93% 30.04 in 3.0 mi Calm Calm - 0.00 in Snow Light Snow
9:44 AM 35.6 °F 32.8 °F 33.8 °F 93% 30.05 in 10.0 mi NNE 3.5 mph - 0.00 in   Overcast
9:52 AM 36.0 °F - 32.0 °F 86% 30.02 in 10.0 mi Calm Calm - 0.00 in   Overcast
10:52 AM 39.9 °F - 33.1 °F 77% 30.00 in 10.0 mi Calm Calm - N/A   Partly Cloudy
11:52 AM 41.0 °F 33.9 °F 33.8 °F 76% 30.02 in 10.0 mi NE 12.7 mph 19.6 mph N/A   Partly Cloudy
12:52 PM 42.1 °F 37.1 °F 30.0 °F 62% 29.97 in 10.0 mi NNE 8.1 mph - N/A   Mostly Cloudy
1:11 PM 44.6 °F 41.4 °F 28.4 °F 53% 30.02 in 10.0 mi Variable 5.8 mph - N/A   Mostly Cloudy
1:52 PM 46.0 °F 41.9 °F 27.0 °F 47% 29.95 in 10.0 mi NNE 8.1 mph 16.1 mph N/A   Clear
2:52 PM 44.1 °F 40.1 °F 28.0 °F 53% 29.98 in 10.0 mi SE 6.9 mph - N/A   Overcast
3:52 PM 44.1 °F 38.6 °F 30.0 °F 58% 30.00 in 10.0 mi SSE 10.4 mph - N/A   Overcast
4:52 PM 44.6 °F 40.7 °F 28.4 °F 53% 30.08 in 10.0 mi SE 6.9 mph - N/A   Mostly Cloudy
5:52 PM 43.0 °F 38.8 °F 28.9 °F 58% 30.05 in 10.0 mi SSE 6.9 mph - N/A   Clear
6:52 PM 37.9 °F 32.7 °F 30.0 °F 73% 30.08 in 10.0 mi SSW 6.9 mph - N/A   Clear
7:52 PM 36.0 °F - 30.0 °F 79% 30.11 in 10.0 mi Calm Calm - N/A   Clear
8:52 PM 35.1 °F - 30.9 °F 85% 30.14 in 10.0 mi Calm Calm - N/A   Overcast
9:52 PM 32.0 °F 27.5 °F 28.9 °F 88% 30.15 in 10.0 mi East 4.6 mph - N/A   Mostly Cloudy
10:52 PM 35.1 °F 32.2 °F 30.9 °F 85% 30.12 in 10.0 mi NE 3.5 mph - N/A   Overcast
11:52 PM 36.0 °F - 30.9 °F 82% 30.09 in 10.0 mi Calm Calm - N/A   Overcast